Ogallala, NE

12:41 PM MDT on June 28, 2017 (GMT -0600)
Searle

Weather History for KOGA - October, 2012

Change the Weather History Date:

Sunday, October 28, 2012

  Actual Average Record
Temperature  
Mean Temperature 42 °F -  
Max Temperature 62 °F 59 °F 86 °F (2016)
Min Temperature 24 °F 28 °F 14 °F (1976)
Degree Days  
Heating Degree Days 22    
Moisture  
Dew Point 31 °F    
Average Humidity 70    
Maximum Humidity 92    
Minimum Humidity 29    
Precipitation  
Precipitation 0.00 in - - ()
Sea Level Pressure  
Sea Level Pressure 30.06 in    
Wind  
Wind Speed 2 mph (South)    
Max Wind Speed 13 mph    
Max Gust Speed 17 mph    
Visibility 10 miles    
Events      
Averages and records for this station are not official NWS values.
T = Trace of Precipitation, MM = Missing Value Source: NWS Daily Summary

Daily Weather History Graph

Daily Weather History Graph

Search for Another Location

Airport or City:

Trip Planner

Search our weather history database for the weather conditions in past years. The results will help you decide how hot, cold, wet, or windy it might be!

Date:

Astronomy

Oct. 28, 2012 Rise Set
Actual Time 7:14 AM MDT 5:46 PM MDT
Civil Twilight 6:45 AM MDT 6:15 PM MDT
Nautical Twilight 6:13 AM MDT 6:47 PM MDT
Astronomical Twilight 5:41 AM MDT 7:19 PM MDT
Moon 5:05 PM MDT 6:08 AM MDT
Length of Visible Light 11h 29m
Length of Day
10h 32m
Waxing Gibbous, 99% of the Moon is Illuminated
Oct 28
Waxing Gibbous
Oct 29
Full
Nov 6
Last Quarter
Nov 13
New
Nov 20
First Quarter

Hourly Weather History & Observations

Time (MDT) Temp. Windchill Dew Point Humidity Pressure Visibility Wind Dir Wind Speed Gust Speed Precip Events Conditions
12:15 AM 24.8 °F 20.5 °F 22.3 °F 90% 30.16 in 10.0 mi East 3.5 mph - N/A   Clear
12:35 AM 25.0 °F - 22.5 °F 90% 30.15 in 10.0 mi Calm Calm - N/A   Clear
12:55 AM 25.2 °F - 22.3 °F 89% 30.15 in 10.0 mi Calm Calm - N/A   Mostly Cloudy
1:15 AM 24.8 °F - 22.6 °F 91% 30.15 in 10.0 mi Calm Calm - N/A   Mostly Cloudy
1:35 AM 25.7 °F - 23.2 °F 90% 30.14 in 10.0 mi Calm Calm - N/A   Mostly Cloudy
1:55 AM 26.4 °F - 23.7 °F 90% 30.14 in 10.0 mi Calm Calm - N/A   Mostly Cloudy
2:15 AM 26.6 °F - 24.1 °F 90% 30.14 in 10.0 mi Calm Calm - N/A   Scattered Clouds
2:35 AM 27.0 °F - 24.4 °F 90% 30.13 in 10.0 mi Calm Calm - N/A   Clear
2:55 AM 27.5 °F - 24.8 °F 90% 30.13 in 10.0 mi Calm Calm - N/A   Clear
3:15 AM 27.5 °F - 25.0 °F 90% 30.13 in 10.0 mi Calm Calm - N/A   Clear
3:35 AM 27.7 °F - 25.2 °F 90% 30.13 in 10.0 mi Calm Calm - N/A   Clear
3:55 AM 28.2 °F - 26.1 °F 92% 30.11 in 10.0 mi Calm Calm - N/A   Clear
4:15 AM 29.1 °F - 26.6 °F 90% 30.11 in 10.0 mi Calm Calm - N/A   Mostly Cloudy
4:35 AM 30.0 °F - 27.0 °F 88% 30.11 in 10.0 mi Calm Calm - N/A   Overcast
4:55 AM 29.3 °F - 26.6 °F 90% 30.11 in 10.0 mi Calm Calm - N/A   Overcast
5:15 AM 30.7 °F 27.3 °F 27.3 °F 87% 30.11 in 10.0 mi East 3.5 mph - N/A   Overcast
5:35 AM 31.1 °F - 28.4 °F 90% 30.11 in 10.0 mi Calm Calm - N/A   Overcast
5:55 AM 31.8 °F 28.5 °F 29.1 °F 90% 30.10 in 10.0 mi East 3.5 mph - N/A   Overcast
6:15 AM 32.0 °F 28.7 °F 28.9 °F 88% 30.10 in 10.0 mi East 3.5 mph - N/A   Overcast
6:35 AM 32.2 °F - 29.3 °F 89% 30.11 in 10.0 mi Calm Calm - N/A   Overcast
6:55 AM 32.4 °F - 29.3 °F 88% 30.12 in 10.0 mi Calm Calm - N/A   Overcast
7:15 AM 32.4 °F - 29.7 °F 90% 30.11 in 10.0 mi Calm Calm - N/A   Overcast
7:35 AM 32.9 °F 29.8 °F 30.0 °F 89% 30.11 in 10.0 mi East 3.5 mph - N/A   Overcast
7:55 AM 32.9 °F 28.5 °F 30.2 °F 90% 30.11 in 10.0 mi East 4.6 mph - N/A   Overcast
8:15 AM 33.4 °F - 30.9 °F 90% 30.11 in 10.0 mi Calm Calm - N/A   Overcast
8:55 AM 34.7 °F - 32.0 °F 90% 30.11 in 10.0 mi Calm Calm - N/A   Overcast
9:15 AM 36.0 °F - 32.5 °F 87% 30.11 in 10.0 mi Calm Calm - N/A   Overcast
9:35 AM 37.0 °F - 33.4 °F 87% 30.11 in 10.0 mi Calm Calm - N/A   Overcast
9:55 AM 38.3 °F - 34.2 °F 85% 30.10 in 10.0 mi Calm Calm - N/A   Overcast
10:15 AM 39.2 °F - 34.3 °F 83% 30.10 in 10.0 mi Calm Calm - N/A   Overcast
10:35 AM 40.3 °F - 35.1 °F 82% 30.09 in 10.0 mi Calm Calm - N/A   Overcast
11:15 AM 44.4 °F - 35.6 °F 71% 30.07 in 10.0 mi Calm Calm - N/A   Overcast
11:35 AM 46.8 °F - 34.5 °F 62% 30.07 in 10.0 mi SSW 6.9 mph - N/A   Overcast
11:55 AM 48.9 °F - 34.7 °F 58% 30.07 in 10.0 mi SW 8.1 mph - N/A   Mostly Cloudy
12:15 PM 49.8 °F - 33.1 °F 53% 30.06 in 10.0 mi SW 11.5 mph 17.3 mph N/A   Overcast
12:35 PM 49.8 °F - 32.0 °F 50% 30.05 in 10.0 mi SW 12.7 mph 16.1 mph N/A   Overcast
12:55 PM 50.9 °F - 32.9 °F 50% 30.05 in 10.0 mi SW 6.9 mph - N/A   Overcast
1:15 PM 51.6 °F - 33.6 °F 50% 30.04 in 10.0 mi SSW 3.5 mph - N/A   Overcast
1:35 PM 54.0 °F - 32.4 °F 44% 30.02 in 10.0 mi SSW 6.9 mph - N/A   Overcast
1:55 PM 55.9 °F - 35.8 °F 47% 30.00 in 10.0 mi South 6.9 mph - N/A   Mostly Cloudy
2:15 PM 57.4 °F - 35.6 °F 44% 30.00 in 10.0 mi South 5.8 mph - N/A   Scattered Clouds
2:35 PM 59.2 °F - 32.2 °F 36% 29.99 in 10.0 mi South 10.4 mph - N/A   Clear
2:55 PM 61.0 °F - 31.3 °F 33% 29.98 in 10.0 mi South 8.1 mph - N/A   Clear
3:15 PM 61.9 °F - 30.6 °F 31% 29.98 in 10.0 mi SW 8.1 mph - N/A   Clear
3:35 PM 61.7 °F - 29.3 °F 29% 29.97 in 10.0 mi WSW 8.1 mph - N/A   Clear
3:55 PM 61.7 °F - 29.8 °F 30% 29.98 in 10.0 mi SSW 4.6 mph - N/A   Clear
4:15 PM 59.2 °F - 34.7 °F 40% 29.98 in 10.0 mi SSE 9.2 mph - N/A   Clear
4:35 PM 56.8 °F - 35.6 °F 45% 29.98 in 10.0 mi SSE 10.4 mph - N/A   Clear
4:55 PM 55.4 °F - 36.3 °F 49% 29.98 in 10.0 mi SSE 8.1 mph - N/A   Clear
5:15 PM 52.9 °F - 35.6 °F 52% 29.98 in 10.0 mi SSE 5.8 mph - N/A   Scattered Clouds
5:35 PM 51.4 °F - 35.2 °F 54% 29.99 in 10.0 mi Calm Calm - N/A   Mostly Cloudy
5:55 PM 50.5 °F - 35.2 °F 56% 29.99 in 10.0 mi East 3.5 mph - N/A   Mostly Cloudy
6:15 PM 50.9 °F - 34.9 °F 54% 30.00 in 10.0 mi Calm Calm - N/A   Mostly Cloudy
6:35 PM 50.5 °F - 35.1 °F 55% 30.00 in 10.0 mi Calm Calm - N/A   Overcast
6:55 PM 51.1 °F - 34.2 °F 52% 30.00 in 10.0 mi Calm Calm - N/A   Overcast
7:35 PM 51.4 °F - 33.1 °F 50% 30.00 in 10.0 mi Calm Calm - N/A   Overcast
7:55 PM 50.7 °F - 33.1 °F 51% 30.00 in 10.0 mi South 6.9 mph - N/A   Overcast
8:15 PM 49.5 °F - 32.9 °F 53% 30.00 in 10.0 mi Calm Calm - N/A   Scattered Clouds
8:35 PM 48.7 °F - 32.5 °F 54% 30.01 in 10.0 mi Calm Calm - N/A   Clear
8:55 PM 47.5 °F - 32.5 °F 56% 30.01 in 10.0 mi Calm Calm - N/A   Clear
9:35 PM 43.9 °F - 32.0 °F 63% 30.02 in 10.0 mi Calm Calm - N/A   Clear
9:55 PM 41.9 °F 40.0 °F 32.0 °F 68% 30.03 in 10.0 mi WSW 3.5 mph - N/A   Clear
10:15 PM 43.0 °F - 32.0 °F 65% 30.03 in 10.0 mi Calm Calm - N/A   Clear
10:55 PM 34.5 °F 31.6 °F 29.5 °F 82% 30.03 in 10.0 mi West 3.5 mph - N/A   Clear
11:15 PM 33.4 °F - 30.0 °F 87% 30.02 in 10.0 mi Calm Calm - N/A   Clear
11:35 PM 34.0 °F - 30.2 °F 86% 30.02 in 10.0 mi Calm Calm - N/A   Clear
11:55 PM 32.4 °F 29.1 °F 29.1 °F 88% 30.03 in 10.0 mi West 3.5 mph - N/A   Clear